Weather History for YTEF - November, 2011

Change the Weather History Date:

Saturday, November 12, 2011

  Actual Average Record
Temperature  
Mean Temperature 91 °F -  
Max Temperature 102 °F - - ()
Min Temperature 80 °F - - ()
Cooling Degree Days 26    
Growing Degree Days 41 (Base 50)    
Moisture  
Dew Point 59 °F    
Average Humidity 34    
Maximum Humidity 54    
Minimum Humidity 12    
Precipitation  
Precipitation 0.00 in - - ()
Sea Level Pressure  
Sea Level Pressure 29.85 in    
Wind  
Wind Speed 8 mph ()    
Max Wind Speed 13 mph    
Max Gust Speed -    
T = Trace of Precipitation, MM = Missing Value Source: Averaged Metar Reports

Daily Weather History Graph

Daily Weather History Graph

Search for Another Location

Airport or City:

Trip Planner

Search our weather history database for the weather conditions in past years. The results will help you decide how hot, cold, wet, or windy it might be!

Date:

Astronomy

Nov. 12, 2011 Rise Set
Actual Time 5:02 AM AWST 6:08 PM AWST
Civil Twilight 4:38 AM AWST 6:31 PM AWST
Nautical Twilight 4:10 AM AWST 6:59 PM AWST
Astronomical Twilight 3:41 AM AWST 7:28 PM AWST
Moon 7:26 PM AWST (11/12) 5:44 AM AWST (11/12)
Length of Visible Light 13h 53m
Length of Day
13h 05m
Full, 98% of the Moon is Illuminated
Nov 12
Full
Nov 18
Last Quarter
Nov 25
New
Dec 2
First Quarter
Dec 10
Full

Hourly Weather History & Observations

Time (AWST) Temp. Heat Index Dew Point Humidity Pressure Visibility Wind Dir Wind Speed Gust Speed Precip Events Conditions
12:00 AM 84 °F - 60 °F 34% 29.83 in - NNW 6.9 mph - -  
12:00 AM 84.2 °F 84.4 °F 60.8 °F 45% 29.89 in - NNW 6.9 mph - N/A   Unknown
1:00 AM 84.2 °F 84.4 °F 60.8 °F 45% 29.86 in - WNW 12.7 mph - N/A   Unknown
2:00 AM 85 °F - 61 °F 34% 29.81 in - WNW 12.7 mph - -  
2:00 AM 84.2 °F 84.4 °F 60.8 °F 45% 29.86 in - WNW 12.7 mph - N/A   Unknown
3:00 AM 83 °F - 61 °F 37% 29.82 in - East 8.1 mph - -  
3:00 AM 82.4 °F 82.9 °F 60.8 °F 48% 29.89 in - ENE 8.1 mph - N/A   Unknown
4:00 AM 82.4 °F 82.9 °F 60.8 °F 48% 29.89 in - East 8.1 mph - N/A   Unknown
5:00 AM 82 °F - 61 °F 39% 29.84 in - East 10.4 mph - -  
5:00 AM 82.4 °F 82.9 °F 60.8 °F 48% 29.89 in - East 10.4 mph - N/A   Unknown
6:00 AM 81 °F - 62 °F 43% 29.86 in - ENE 12.7 mph - -  
6:00 AM 80.6 °F 81.8 °F 62.6 °F 54% 29.92 in - ENE 12.7 mph - N/A   Unknown
7:00 AM 82.4 °F 83.4 °F 62.6 °F 51% 29.95 in - NNE 6.9 mph - N/A   Unknown
8:00 AM 84 °F - 62 °F 37% 29.90 in - NNE 6.9 mph - -  
8:00 AM 84.2 °F 85.0 °F 62.6 °F 48% 29.95 in - NNE 6.9 mph - N/A   Unknown
9:00 AM 85 °F - 63 °F 37% 29.90 in - NE 8.1 mph - -  
9:00 AM 86.0 °F 86.6 °F 62.6 °F 45% 29.95 in - NE 8.1 mph - N/A   Unknown
10:00 AM 87.8 °F 88.5 °F 62.6 °F 43% 29.95 in - NE 11.5 mph - N/A   Unknown
11:00 AM 95 °F - 60 °F 22% 29.85 in - ENE 12.7 mph - -  
11:00 AM 95.0 °F 95.2 °F 60.8 °F 32% 29.92 in - ENE 12.7 mph - N/A   Unknown
12:00 PM 98 °F - 54 °F 14% 29.83 in - NE 12.7 mph - -  
12:00 PM 98.6 °F 96.4 °F 53.6 °F 22% 29.89 in - NE 12.7 mph - N/A   Unknown
1:00 PM 100.4 °F 98.4 °F 53.6 °F 21% 29.83 in - NE 9.2 mph - N/A   Unknown
2:00 PM 99 °F - 51 °F 12% 29.76 in - ENE 6.9 mph - -  
2:00 PM 98.6 °F - 51.8 °F 21% 29.83 in - ENE 6.9 mph - N/A   Unknown
3:00 PM 100 °F - 53 °F 13% 29.75 in - East 10.4 mph - -  
3:00 PM 100.4 °F 98.4 °F 53.6 °F 21% 29.80 in - East 10.4 mph - N/A   Unknown
4:00 PM 98.6 °F - 51.8 °F 21% 29.80 in - East 3.5 mph - N/A   Unknown
5:00 PM 98 °F - 53 °F 13% 29.74 in - ENE 9.2 mph - -  
6:00 PM 95.0 °F - 51.8 °F 23% 29.80 in - ENE 9.2 mph - N/A   Unknown
7:00 PM 93.2 °F 90.8 °F 53.6 °F 26% 29.83 in - NE 6.9 mph - N/A   Unknown
8:00 PM 91 °F - 56 °F 21% 29.80 in - NNE 5.8 mph - -  
8:00 PM 91.4 °F 89.4 °F 55.4 °F 29% 29.86 in - NNE 5.8 mph - N/A   Unknown
9:00 PM 89 °F - 56 °F 23% 29.80 in - NE 5.8 mph - -  
10:00 PM 87.8 °F 87.6 °F 60.8 °F 40% 29.86 in - North 11.5 mph - N/A   Unknown
11:00 PM 86 °F - 65 °F 39% 29.81 in - NNW 6.9 mph - -  
11:00 PM 86.0 °F 87.3 °F 64.4 °F 48% 29.86 in - NNW 6.9 mph - N/A   Unknown